CST,Max TemperatureF,Mean TemperatureF,Min TemperatureF,Max Dew PointF,MeanDew PointF,Min DewpointF,Max Humidity, Mean Humidity, Min Humidity, Max Sea Level PressureIn, Mean Sea Level PressureIn, Min Sea Level PressureIn, Max VisibilityMiles, Mean VisibilityMiles, Min VisibilityMiles, Max Wind SpeedMPH, Mean Wind SpeedMPH, Max Gust SpeedMPH,PrecipitationIn, CloudCover, Events, WindDirDegrees
2012-11-1,46,38,30,39,31,25,93,73,49,30.03,29.99,29.93,10,10,5,20,12,28,0.00,4,,327
2012-11-2,39,32,26,28,26,23,93,76,65,30.13,30.07,30.02,10,10,10,12,7,,0.00,3,,64
2012-11-3,46,36,26,37,30,25,100,74,53,30.19,30.16,30.12,10,10,10,7,2,,0.00,7,Rain,281
2012-11-4,48,40,33,39,38,34,100,91,71,30.17,30.12,30.06,10,6,1,10,3,,0.00,7,Rain,22
2012-11-5,39,38,37,37,37,36,100,97,93,30.15,30.08,29.91,10,3,0,17,6,18,0.00,8,Fog-Rain,278
2012-11-6,44,40,37,37,36,34,93,82,71,30.00,29.89,29.81,10,9,5,22,16,32,0.03,7,Rain,285
2012-11-7,48,39,30,36,33,28,100,78,50,30.12,30.05,29.98,10,10,10,15,8,22,0.00,2,,221
2012-11-8,55,45,35,37,34,32,100,73,44,29.97,29.92,29.85,10,9,5,17,12,23,0.00,0,,207
2012-11-9,53,43,33,43,38,34,100,85,62,29.97,29.89,29.77,10,6,0,17,11,23,0.00,5,Fog,56
2012-11-10,68,57,46,54,46,41,100,76,37,29.76,29.56,29.44,10,8,3,25,13,34,0.28,5,Rain-Thunderstorm,162
2012-11-11,44,32,19,43,22,12,93,79,64,29.97,29.82,29.58,10,10,5,26,19,31,0.00,6,Snow,279
2012-11-12,28,22,17,18,15,10,93,76,59,30.28,30.10,29.96,10,10,5,26,17,33,0.00,4,Snow,266
2012-11-13,46,32,19,28,21,14,86,63,32,30.29,30.25,30.21,10,10,10,15,4,17,0.00,3,,183
2012-11-14,53,40,26,32,29,25,93,65,38,30.24,30.19,30.11,10,10,10,10,4,,0.00,4,,190
2012-11-15,46,34,21,34,28,18,93,72,53,30.45,30.26,30.09,10,10,10,20,11,23,0.00,0,,296
2012-11-16,46,29,12,30,20,10,93,66,29,30.45,30.36,30.24,10,10,10,14,5,,0.00,0,,160
2012-11-17,57,47,37,36,33,30,87,61,38,30.25,30.17,30.10,10,10,10,21,14,31,0.00,1,,166
2012-11-18,57,50,42,36,32,28,62,52,41,30.10,30.05,30.00,10,10,10,23,15,28,0.00,0,,173
2012-11-19,57,48,39,39,37,36,87,66,48,30.11,30.01,29.98,10,10,10,14,10,24,0.00,1,,222
2012-11-20,60,42,23,37,29,21,100,66,22,30.18,30.10,30.00,10,8,0,17,6,20,0.00,1,Fog,209
2012-11-21,69,56,42,45,37,32,76,54,25,30.00,29.85,29.67,10,10,10,23,15,32,0.00,0,,190
2012-11-22,57,42,26,45,35,19,93,72,58,30.11,29.81,29.62,10,10,10,32,18,43,0.00,4,Rain,269
2012-11-23,26,18,10,18,12,9,92,72,55,30.38,30.31,30.12,10,10,7,34,23,44,0.00,4,Snow,312
2012-11-24,35,20,6,19,14,5,93,70,48,30.33,30.03,29.78,10,10,10,18,6,24,0.00,3,,185
2012-11-25,37,30,23,27,22,18,93,76,52,30.16,29.98,29.81,10,10,10,21,11,26,0.00,4,,315
2012-11-26,24,17,10,18,8,3,79,70,50,30.41,30.31,30.16,10,10,10,18,10,23,0.00,2,,321
2012-11-27,37,26,15,25,18,9,93,76,56,30.31,30.18,30.06,10,10,1,21,4,28,0.00,0,Snow,262
2012-11-28,41,24,8,27,20,7,100,78,53,30.31,30.19,30.02,10,9,3,14,5,17,0.00,1,,186
2012-11-29,42,28,15,27,24,14,100,75,53,30.02,29.99,29.95,10,10,7,12,5,,0.00,0,,49
2012-11-30,39,30,21,34,28,19,100,87,75,30.11,30.03,29.97,10,5,2,17,9,21,0.00,1,,76